User: anonymous
Location: Oshawa
(43.9000°N, 78.8670°W)
Time: 14:14:50
(UTC-04:00)
Language:

Cosmos 2333 Rocket - Orbit

View from above orbital plane
View from above orbital plane
View from above satellite
View from above satellite

Ground track
Ground track

The orbit data is extracted from the following two-line orbital elements,

1 24298U 96051B   14242.50605436 -.00000123  00000-0 -40251-4 0  5303
2 24298 070.8638 055.4465 0018400 262.4616 159.6365 14.12465840927567
Epoch (UTC): 30 August 2014 12:08:43
Eccentricity: 0.0018400
inclination: 70.8638°
perigee height: 837 km
apogee height: 864 km
right ascension of ascending node: 55.4465°
argument of perigee: 262.4616°
revolutions per day: 14.12465840
mean anomaly at epoch: 159.6365°
orbit number at epoch: 92756

The dashed part of the orbit path shows where the satellite is in the earth's shadow,  

DLR